This is the latest recevied weather packets stored in our database for station/object S50ME-11. If no packets are shown the sender has not sent any weather packets the latest 10 day(s).
| Time | Temp. | Humidity | Pressure | Rain* | Wind** | Luminosity | Snow |
|---|---|---|---|---|---|---|---|
| 1777616143 | 10.56° C | 39% | 1029.8 hPa | - | - | - | - |
| 1777616137 | 10.56° C | 39% | 1029.8 hPa | - | - | - | - |
| 1777615249 | 10° C | 39% | 1030.7 hPa | - | - | - | - |
| 1777615246 | 10° C | 39% | 1030.7 hPa | - | - | - | - |
| 1777614349 | 9.44° C | 39% | 1030.7 hPa | - | - | - | - |
| 1777614345 | 9.44° C | 39% | 1030.7 hPa | - | - | - | - |
| 1777613523 | 8.89° C | 39% | 1029.7 hPa | - | - | - | - |
| 1777613448 | 8.89° C | 39% | 1029.7 hPa | - | - | - | - |
| 1777613445 | 8.89° C | 39% | 1029.7 hPa | - | - | - | - |
| 1777612548 | 8.33° C | 39% | 1029.7 hPa | - | - | - | - |
| 1777612545 | 8.33° C | 39% | 1029.7 hPa | - | - | - | - |
| 1777611647 | 7.78° C | 39% | 1030.2 hPa | - | - | - | - |
| 1777611644 | 7.78° C | 39% | 1030.2 hPa | - | - | - | - |
| 1777610747 | 6.11° C | 40% | 1029.8 hPa | - | - | - | - |
| 1777610743 | 6.11° C | 40% | 1029.8 hPa | - | - | - | - |
| 1777609846 | 5.56° C | 40% | 1028.8 hPa | - | - | - | - |
| 1777609843 | 5.56° C | 40% | 1028.8 hPa | - | - | - | - |
| 1777608946 | 5.56° C | 40% | 1029.8 hPa | - | - | - | - |
| 1777608943 | 5.56° C | 40% | 1029.8 hPa | - | - | - | - |
| 1777608046 | 5.56° C | 40% | 1029.9 hPa | - | - | - | - |
| 1777608043 | 5.56° C | 40% | 1029.9 hPa | - | - | - | - |
| 1777607145 | 5.56° C | 40% | 1029.8 hPa | - | - | - | - |
| 1777607142 | 5.56° C | 40% | 1029.8 hPa | - | - | - | - |
| 1777606278 | 5.56° C | 40% | 1029.7 hPa | - | - | - | - |
| 1777606245 | 5.56° C | 40% | 1029.7 hPa | - | - | - | - |
* Rain since midnight (hover to see other rain measurements)
** Current wind speed in m/s (hover to see current wind gust speed)